Regional Weather Roundup
Issued by NWS Wilmington, NC

Home | Current Version | Previous Version | Text Only | Print | Product List | Glossary On
Versions: 1 2 3 4 5 6 7 8 9 10 11 12 13 14 15 16 17 18 19 20 21 22 23 24 25 26 27 28
000
ASUS42 KILM 250813
RWRILM
RWRILM
REGIONAL HOURLY WEATHER ROUNDUP
NATIONAL WEATHER SERVICE WILMINGTON NC
400 AM EDT WED MAY 25 2016

NOTE: "FAIR" INDICATES FEW OR NO CLOUDS BELOW 12,000 FEET WITH NO
SIGNIFICANT WEATHER AND/OR OBSTRUCTIONS TO VISIBILITY.

...............WFO WILMINGTON COUNTY WARNING AREA...............

......COASTAL NC AND SC COUNTIES......

CITY           SKY/WX    TMP DP  RH WIND       PRES   REMARKS
WILMINGTON     PTCLDY    62  59  90 SW3       30.18S
N MYRTLE BEACH CLEAR     62  61  96 CALM      30.18S
MYRTLE BEACH   CLEAR     64  54  68 CALM      30.21S

......INLAND NC AND SC COUNTIES.......

CITY           SKY/WX    TMP DP  RH WIND       PRES   REMARKS
LUMBERTON      CLEAR     60  57  89 CALM      30.18R
ELIZABETHTOWN  CLEAR     63  57  81 SW5       30.19R
WHITEVILLE     CLEAR     63  58  83 CALM      30.19R
FLORENCE       CLEAR     64  60  87 CALM      30.19R
DARLINGTON     CLEAR     63  60  90 CALM      30.19S
KINGSTREE      FAIR      61  59  94 CALM      30.19S
HARTSVILLE     FAIR      59  59 100 CALM      30.18S
BENNETTSVILLE  FAIR     N/A N/A N/A CALM      30.19R
CONWAY         FAIR      55  55 100 CALM      30.19S
GEORGETOWN     FAIR      57  55  94 CALM      30.20S
MARION         FAIR      59  57  94 CALM      30.19S

....................REST OF NORTH CAROLINA......................

.........EASTERN NC.........

CITY           SKY/WX    TMP DP  RH WIND       PRES   REMARKS
CAPE HATTERAS  CLEAR     66  62  87 W5        30.16S
JACKSONVILLE   CLEAR     57  56  96 CALM      30.19R
MOREHEAD CITY  CLEAR     67  60  78 W3        30.18R
KENANSVILLE    CLEAR     56  55  96 CALM      30.19S
NEW BERN       CLEAR     62  56  80 W5        30.19R
ELIZABETH CITY CLEAR     62  58  86 SW9       30.14R

.........CENTRAL NC.........

CITY           SKY/WX    TMP DP  RH WIND       PRES   REMARKS
RALEIGH DURHAM MOCLDY    62  55  77 CALM      30.17R
ROCKY MOUNT    CLEAR     60  56  86 S6        30.16S
ROANOKE RAPIDS NOT AVBL
FAYETTEVILLE   CLEAR     61  56  83 SW6       30.18R
HOFFMAN        CLEAR     61  58  91 SW3       30.18R

.........WESTERN NC.........

CITY           SKY/WX    TMP DP  RH WIND       PRES   REMARKS
CHARLOTTE      PTCLDY    64  53  67 CALM      30.19R
GREENSBORO     CLEAR     62  54  74 SW3       30.18R
HICKORY        NOT AVBL
BOONE          NOT AVBL
ASHEVILLE      NOT AVBL

.....................REST OF SOUTH CAROLINA.....................

.........EASTERN SC.........

CITY           SKY/WX    TMP DP  RH WIND       PRES   REMARKS
CHARLESTON     PTCLDY    67  62  84 CALM      30.18S
BEAUFORT MCAS  CLOUDY    67  65  93 CALM      30.19R FOG
HILTON HEAD    PTCLDY    68  66  94 CALM      30.19S

.........CENTRAL SC.........

CITY           SKY/WX    TMP DP  RH WIND       PRES   REMARKS
COLUMBIA       CLEAR     63  58  83 W3        30.17S
ORANGEBURG     CLEAR     63  62  97 SW3       30.18S FOG
SUMTER SHAW    CLEAR     62  60  93 SW3       30.16S

.........WESTERN SC.........

CITY           SKY/WX    TMP DP  RH WIND       PRES   REMARKS
GREENVILLE     NOT AVBL
ROCK HILL      MOCLDY    60  56  86 SW6       30.19R
ANDERSON       CLEAR     59  56  89 CALM      30.17F
CLEMSON        NOT AVBL
GREENWOOD      CLEAR     59  55  87 CALM      30.19S


...................COASTAL AND OFFSHORE REPORTS..................

................LOCAL PIERS AND NC RESERVE................


STATION/POSITION TIME  SKY/WX   TEMP    WIND        PRES    VSBY
                                AIR SEA DIR/SP/G
                 (UTC)          (F)     (DEG/KT/KT) (MB)    (MI)
JOHNY MRCER PIER 0700            68 73  240/  5/  6 1020.8R
NC RESRV MASNBRO NOT AVBL
OCEAN CREST PIER NOT AVBL
SPRINGMAID  PIER 0700            70 74  210/  6/  6 1021.7F


................COASTAL AND OFFSHORE BUOYS................


STATION/POSITION TIME  SKY/WX   TEMP    WIND        PRES    VSBY
                                AIR SEA DIR/SP/G
                 (UTC)          (F)     (DEG/KT/KT) (MB)    (MI)
DIMNDSHOAL 41025 0750            69 69  250/ 10/ 10 1021.4R
WVE H/P(F/S)=  3/ 5 SWL H/P/D(F/S/D)=  3/220/ 5

CAPE LOOKOUT     0800            69     260/  6/  7 1021.6R
ONSLOW BAY 41036 NOT AVBL
ONSLOW BAY 41064 0708            73 73  250/ 12/ 16 1021.9R
ONSLOW BAY 41159 0725               73                N/A
WVE H/P(F/S)=  3/ 4

5SE WRITBC 41038 NOT AVBL
MASNBO INL 41110 0706               72                N/A
WVE H/P(F/S)=  2/ 8

WILM HARBR 41108 0726               72                N/A
WVE H/P(F/S)=  2/ 8

27SE WRITB 41037 0708            73 72  250/ 12/ 14 1021.4R
FRYING PAN 41013 0700            76 76  240/ 12/ 14 1021.8F
SUNST NRSH 41024 0708            73 72  250/ 12/ 16 1021.4S
CAPRS NRSH 41029 0708            74 74  210/  6/ 10 1021.9R
EDISTO     41004 0750            76 75  210/  4/  6 1021.9S
WVE H/P(F/S)=  2/ 9 SWL H/P/D(F/S/D)=  2/ 9



..........OFFSHORE BUOYS BEYOND 100 NM OFFSHORE...........
.....IN A TRIANGLE---HAT TO BERMUDA TO BAHAMAS TO HAT.....


STATION/POSITION TIME  SKY/WX   TEMP    WIND        PRES    VSBY
                                AIR SEA DIR/SP/G
                 (UTC)          (F)     (DEG/KT/KT) (MB)    (MI)
150E HAT   41001 NOT AVBL
W BERMUDA  41048 0750            73 75  360/  8/ 10 1021.5R
WVE H/P(F/S)=  4/ 7 SWL H/P/D(F/S/D)=  5/200/ 7

ATLANTIC S 41049 0750            78 78  140/ 14/ 16 1022.2S
WVE H/P(F/S)=  5/ 7 SWL H/P/D(F/S/D)=  3/ 30/11

E BAHAMAS  41046 0700            77 81   20/ 14/ 17 1017.5F
NE BAHAMAS 41047 0700            73 80   20/  2/  4 1019.8S
120E CANVRL41010 0720            76 78   80/  6/  8 1022.0S

END




USA.gov is the U.S. government's official web portal to all federal, state and local government web resources and services.